DB0TGO-13 Weather Reports


time (UTC)temp
F
wind
direction
speed
knots
gust
knots
rain 1hr
in
rain 24hr
in
rain mn
in
humidity
%
barometer
mb
20260510204502 59 80 6.1 0.0 0.00 0.00 0.00 56 1003.1
20260510203002 59 50 5.2 0.0 0.00 0.00 0.00 56 1003.1
20260510201502 58 50 5.2 0.0 0.00 0.00 0.00 59 1003.0
20260510200002 58 30 3.5 0.0 0.00 0.00 0.00 59 1003.0
20260510194502 61 30 3.5 0.0 0.00 0.00 0.00 53 1003.1
20260510193002 61 40 5.2 0.0 0.00 0.00 0.00 53 1003.1
20260510191502 62 30 4.3 0.0 0.00 0.00 0.00 52 1003.0
20260510190002 62 30 4.3 0.0 0.00 0.00 0.00 52 1003.0
20260510184505 63 30 4.3 0.0 0.00 0.00 0.00 55 1003.1
20260510183002 63 20 2.6 0.0 0.00 0.00 0.00 55 1003.1
20260510181502 64 10 3.5 0.0 0.00 0.00 0.00 52 1003.3
20260510180002 64 10 3.5 0.0 0.00 0.00 0.00 52 1003.3
20260510174502 68 10 3.5 0.0 0.00 0.00 0.00 42 1003.7
20260510173002 68 300 1.7 0.0 0.00 0.00 0.00 42 1003.7
20260510171503 67 300 1.7 0.0 0.00 0.00 0.00 46 1004.0
20260510170002 67 310 2.6 0.0 0.00 0.00 0.00 46 1004.0
20260510164502 68 310 2.6 0.0 0.00 0.00 0.00 41 1004.2
20260510163003 68 340 4.3 0.0 0.00 0.00 0.00 41 1004.2
20260510161504 69 340 4.3 0.0 0.00 0.00 0.00 38 1004.6
20260510160002 69 320 0.9 0.0 0.00 0.00 0.00 38 1004.6
20260510154502 69 320 0.9 0.0 0.00 0.00 0.00 42 1005.0
20260510153002 69 290 3.5 0.0 0.00 0.00 0.00 42 1005.0
20260510151502 66 290 3.5 0.0 0.00 0.00 0.00 45 1005.5
20260510150002 66 310 2.6 0.0 0.00 0.00 0.00 45 1005.5
20260510144503 68 280 2.6 0.0 0.00 0.00 0.00 44 1005.8
20260510143002 68 280 2.6 0.0 0.00 0.00 0.00 44 1005.8
20260510141502 68 330 1.7 0.0 0.00 0.00 0.00 46 1006.1
20260510140003 68 330 1.7 0.0 0.00 0.00 0.00 46 1006.1
20260510134502 66 330 1.7 0.0 0.00 0.00 0.00 44 1006.4
20260510133003 66 130 1.7 0.0 0.00 0.00 0.00 44 1006.4
20260510131502 66 130 1.7 0.0 0.00 0.00 0.00 48 1006.7
20260510130002 66 290 3.5 0.0 0.00 0.00 0.00 48 1006.7
20260510124502 66 120 1.7 0.0 0.00 0.00 0.00 45 1007.0
20260510123002 66 120 1.7 0.0 0.00 0.00 0.00 45 1007.0
20260510121502 65 120 1.7 0.0 0.00 0.00 0.00 47 1007.4
20260510120002 65 220 4.3 0.0 0.00 0.00 0.00 47 1007.4
20260510114502 65 160 2.6 0.0 0.00 0.00 0.00 54 1007.6
20260510113002 65 160 2.6 0.0 0.00 0.00 0.00 54 1007.6
20260510111502 64 160 2.6 0.0 0.00 0.00 0.00 56 1007.9
20260510110002 64 140 3.5 0.0 0.00 0.00 0.00 56 1007.9
20260510104503 63 140 3.5 0.0 0.00 0.00 0.00 53 1008.2
20260510103002 63 170 4.3 0.0 0.00 0.00 0.00 53 1008.2
20260510101502 62 130 4.3 0.0 0.00 0.00 0.00 53 1008.4
20260510100003 62 130 4.3 0.0 0.00 0.00 0.00 53 1008.4
20260510094502 60 130 4.3 0.0 0.00 0.00 0.00 57 1008.9
20260510093002 60 170 2.6 0.0 0.00 0.00 0.00 57 1008.9
20260510091502 59 170 2.6 0.0 0.00 0.00 0.00 61 1008.9
20260510090002 59 130 3.5 0.0 0.00 0.00 0.00 61 1008.9
20260510084502 58 150 5.2 0.0 0.00 0.00 0.00 61 1009.3
20260510083002 58 150 5.2 0.0 0.00 0.00 0.00 61 1009.3
20260510081502 57 140 5.2 0.0 0.00 0.00 0.00 64 1009.7
20260510080002 57 140 5.2 0.0 0.00 0.00 0.00 64 1009.7
20260510074503 55 140 5.2 0.0 0.00 0.00 0.00 68 1009.8
20260510073002 55 150 4.3 0.0 0.00 0.00 0.00 68 1009.8
20260510071502 52 150 4.3 0.0 0.00 0.00 0.00 71 1009.9
20260510070002 52 150 4.3 0.0 0.00 0.00 0.00 71 1009.9
20260510064502 51 150 4.3 0.0 0.00 0.00 0.00 77 1010.1
20260510063002 51 140 2.6 0.0 0.00 0.00 0.00 77 1010.1
20260510061502 49 140 2.6 0.0 0.00 0.00 0.00 80 1010.1
20260510060003 49 120 2.6 0.0 0.00 0.00 0.00 80 1010.1
20260510054502 47 120 3.5 0.0 0.00 0.00 0.00 83 1010.1
20260510053002 47 120 3.5 0.0 0.00 0.00 0.00 83 1010.1
20260510051502 45 120 3.5 0.0 0.00 0.00 0.00 87 1010.5
20260510050002 45 120 1.7 0.0 0.00 0.00 0.00 87 1010.5
20260510044502 42 120 1.7 0.0 0.00 0.00 0.00 95 1010.6
20260510043002 42 100 1.7 0.0 0.00 0.00 0.00 95 1010.6
20260510041503 41 50 0.9 0.0 0.00 0.00 0.00 95 1010.8
20260510040002 41 50 0.9 0.0 0.00 0.00 0.00 95 1010.8
20260510034502 44 130 2.6 0.0 0.00 0.00 0.00 90 1010.7
20260510033002 44 130 2.6 0.0 0.00 0.00 0.00 90 1010.7
20260510031502 45 130 2.6 0.0 0.00 0.00 0.00 88 1010.7
20260510030004 45 110 4.3 0.0 0.00 0.00 0.00 88 1010.7